Regional Weather Roundup
Issued by NWS

Home | Current Version | Previous Version | Graphics & Text | Print | Product List | Glossary On
Versions: 1 2 3 4 5 6 7 8 9 10 11 12 13 14 15 16 17 18 19 20 21 22 23 24 25 26 27 28 29 30 31 32 33 34 35 36 37 38 39 40 41 42 43 44 45 46 47 48 49 50
000
ASUS45 KTFX 261310
RWRMT
MONTANA REGIONAL WEATHER ROUNDUP
NATIONAL WEATHER SERVICE GREAT FALLS MT
700 AM MDT SUN MAR 26 2017

NOTE: "FAIR" INDICATES FEW OR NO CLOUDS BELOW 12000 FEET WITH NO
SIGNIFICANT WEATHER AND/OR OBSTRUCTIONS TO VISIBILITY.

MTZ001>007-043-261400-
WEST OF THE DIVIDE

CITY           SKY/WX    TMP DP  RH WIND       PRES   REMARKS
KALISPELL      MOCLDY    26  24  92 N3        29.98F
MISSOULA       PTCLDY    28  26  92 CALM      30.02R
BUTTE          CLEAR     23  20  88 SE6       29.97R WCI  16
MULLAN PASS    PTCLDY    23  21  92 S6        29.90F WCI  16
ANACONDA         N/A     25  21  86 CALM      29.98R
DEER LODGE       N/A     27  25  93 CALM      30.01R
EUREKA           N/A     30  27  86 CALM      29.98S
HAMILTON         N/A     30  28  93 S3        30.00S
PLAINS           N/A     30  24  78 CALM      30.01F
RONAN            N/A     30  24  78 CALM      30.03S
$$

MTZ008-052>055-261400-
SOUTHWEST MONTANA

CITY           SKY/WX    TMP DP  RH WIND       PRES   REMARKS
BOZEMAN        CLOUDY    34  28  79 CALM      29.96R
DILLON         CLOUDY    29  20  69 S8        29.96R WCI  21
W YELLOWSTONE  CLOUDY    28  23  80 S7        29.98R WCI  21
ENNIS          CLOUDY    28  27  93 CALM      30.00R
THREE FORKS      N/A     29  14  53 CALM      29.96R
$$

MTZ009-010-012-014-046-048-049-054-261400-
EAST SLOPES AND CENTRAL MONTANA

CITY           SKY/WX    TMP DP  RH WIND       PRES   REMARKS
CUT BANK       MOCLDY    25  18  74 W8        29.90R WCI  16
GREAT FALLS    PTCLDY    33  22  63 SW10      29.92R WCI  25
MALMSTROM AFB  CLOUDY    36  23  60 SW9       29.93R WCI  29
HELENA         CLOUDY    36  27  69 SW3       29.97R
AUGUSTA        MOCLDY    33  14  44 SW8       29.91R WCI  26
BOWMANS CRNR   MOCLDY    32  21  64 S7        29.91R WCI  25
CHOTEAU          N/A     30  23  74 W3        29.94R
CONRAD           N/A     29  26  88 S3        29.94R
FAIRFIELD      MOCLDY    30  18  61 W3        29.91R
POWER            N/A     24  20  85 CALM      29.92R
RAYNESFORD     MOCLDY    34  22  61 SW5       29.93S
$$

MTZ011-013-016-021-045-047-050-051-261400-
NORTH CENTRAL MONTANA

CITY           SKY/WX    TMP DP  RH WIND       PRES   REMARKS
HAVRE          MOCLDY    29  25  85 SW10      29.93R WCI  20
LEWISTOWN      PTCLDY    28  21  75 E5        29.94S
N BAR RANCH    CLOUDY    34  21  60 NW9       29.95S WCI  26
CHINOOK          N/A     30  23  74 CALM      29.93S
DENTON           N/A     31  22  69 SW12      29.91R WCI  22
GEYSER           N/A     32  22  64 W14       29.91F WCI  22
GRASS RANGE      N/A     30  22  73 W5        29.90S
STANFORD       MOCLDY    29  21  73 CALM      29.93R
WINIFRED         N/A     33  22  64 W5        29.93R
$$

MTZ017>020-022>027-061-062-261400-
NORTHEAST MONTANA

CITY           SKY/WX    TMP DP  RH WIND       PRES   REMARKS
GLASGOW        PTCLDY    32  26  78 NW12      29.89S WCI  23
JORDAN           N/A     32  29  88 NW5       29.91R
SIDNEY         CLOUDY    35  29  78 S8        29.90S WCI  29
WOLF POINT     CLEAR     29  26  89 SW5       29.90R
MALTA          CLOUDY    30  27  86 CALM      29.92S
PLENTYWOOD       N/A     39  34  81 E6        29.88S
POPLAR           N/A     34  28  80 CALM      29.89S
SCOBEY           N/A     30  19  63 SW3       29.88R
$$

MTZ028>42-056>058-261400-
SOUTHCENTRAL AND SOUTHEAST MONTANA

CITY           SKY/WX    TMP DP  RH WIND       PRES   REMARKS
BAKER          CLOUDY    39  36  89 NW7       29.93R
BILLINGS       CLOUDY    37  32  82 SW8       29.94R WCI  31
LIVINGSTON     PTCLDY    30  25  81 SW3       29.95S
MILES CITY     PTCLDY    39  34  82 S5        29.92R
BIG TIMBER     PTCLDY    32  28  86 W7        29.96S WCI  26
EKALAKA          N/A     39  35  85 NW2       29.91
FORSYTH          N/A     37  36  93 CALM      29.93R
HARLOWTON        N/A     30  23  75 W13       29.95R WCI  20
LAUREL           N/A     34  26  72 S1        29.93F
$$

REGIONAL REPORTS...DAKOTAS

CITY           SKY/WX    TMP DP  RH WIND       PRES   REMARKS
WILLISTON      CLOUDY    31  28  89 CALM      29.90R
MINOT          CLOUDY    35  32  88 SE3       29.89S
DICKINSON      CLOUDY    37  33  85 SW3       29.88S
BEACH            N/A    N/A N/A N/A MISG        N/A
TIOGA            N/A     32  32 100 CALM      29.91S
WATFORD CITY     N/A     36  32  87 W3        29.90R
BISMARCK       CLOUDY    37  34  89 E6        29.93S
GRAND FORKS    CLOUDY    34  33  96 S10       29.94F WCI  26
FARGO          CLOUDY    35  34  96 CALM      29.98S FOG
BUFFALO SD       N/A     43  38  82 N14       29.83R
RAPID CITY     LGT RAIN  40  35  83 N22       29.84R
$$

REGIONAL REPORTS...WYOMING/IDAHO/WASHINGTON

CITY           SKY/WX    TMP DP  RH WIND       PRES   REMARKS
GILLETTE       CLOUDY    39  37  92 N8        29.92R
SHERIDAN       CLOUDY    32  31  96 CALM      29.94R
BUFFALO WY     PTCLDY    36  32  85 NW6       29.94R WCI  31
CODY           CLOUDY    35  24  64 SW8       29.95R WCI  29
YELLOWSTONE LA   N/A     19  18  95 W3        29.98F
IDAHO FALLS    CLEAR     28  26  92 SW7       29.99R WCI  21
SALMON         CLOUDY    27  19  74 CALM      30.00R
BOISE          CLEAR     40  27  59 SE10      29.95S
SPOKANE        MOCLDY    34  31  88 CALM      29.94F
$$

REGIONAL REPORTS...ALBERTA

CITY           SKY/WX    TMP DP  RH WIND       PRES   REMARKS
EDMONTON       CLEAR     30  27  86 W2        29.83S
CALGARY        PTCLDY    27  14  59 N5        29.85R
LETHBRIDGE     MOCLDY    30  21  69 W13       29.88S WCI  20
MEDICINE HAT   PTCLDY    28  23  80 S9        29.86R WCI  20
WATERTON GATE    N/A     34  18  51 SW10G18     N/A  WCI  26
CARDSTON         N/A     32  18  55 SW7         N/A  WCI  26
MILK RIVER       N/A     27  21  80 W3          N/A
$$

REGIONAL REPORTS...SASKATCHEWAN

CITY           SKY/WX    TMP DP  RH WIND       PRES   REMARKS
SWIFT CURRENT  CLEAR     34  23  64 SW14      29.83R WCI  24
REGINA         MOCLDY    34  32  93 S7        29.87R WCI  28
SASKATOON      CLOUDY    30  28  93 NE12G17   29.87R WCI  21
CYPRESS HILLS    N/A     27  16  63 SW5         N/A
VAL MARIE        N/A     28  25  86 SW3         N/A
ROCKGLEN         N/A     37  21  52 NW9         N/A  WCI  31
ASSINIBOIA       N/A     30  28  93 S7          N/A  WCI  23
$$



USA.gov is the U.S. government's official web portal to all federal, state and local government web resources and services.